Lid_Strength_Index
9 9 9 11 13 11 14 15 16 14 11 9 8 8 7 6 6 5 5 4 4 3 3 3 3 2 2 2 2 2 1 1
9 8 10 10 10 14 16 17 18 15 14 13 11 9 8 7 7 6 6 4 4 4 3 3 2 2 2 2 2 2 1 1
11 12 12 12 13 13 14 15 16 17 14 10 9 8 8 7 6 6 5 6 5 4 3 2 2 2 2 2 2 2 2 1
13 10 10 12 12 14 15 16 15 14 15 9 8 8 7 7 6 7 7 6 6 6 4 3 3 3 2 2 2 2 1 1
13 12 12 13 12 14 14 14 14 15 15 8 8 8 7 7 6 6 5 6 5 4 4 4 4 3 3 2 2 2 2 2
14 13 12 12 11 12 14 14 14 14 14 11 10 9 8 7 6 6 8 5 5 5 4 4 3 3 3 3 2 2 2 2
11 9 9 10 10 10 12 12 13 12 13 11 10 8 7 7 6 6 7 6 5 5 4 4 4 3 3 2 2 2 2 2
12 9 9 10 9 9 11 12 12 12 13 9 8 7 7 7 6 6 6 6 6 5 4 4 4 3 3 3 2 2 2 2
12 9 10 13 11 10 10 10 11 13 11 8 9 7 7 7 6 6 6 5 5 5 4 4 3 3 3 3 2 2 2 2
12 11 16 11 8 8 10 9 9 10 9 8 7 6 6 6 6 5 5 5 4 5 4 3 3 3 2 2 2 3 3 2
13 15 12 10 8 9 10 11 8 9 8 7 6 6 7 5 5 5 4 4 4 4 3 3 3 2 3 3 3 3 3 3
13 15 16 11 7 6 7 13 7 8 8 7 7 11 9 5 4 4 3 5 5 3 4 3 3 2 3 3 3 3 3 2
14 15 12 8 7 6 14 13 7 7 7 7 8 7 6 4 4 4 4 3 4 4 3 3 3 3 3 3 3 2 2 2
14 15 16 7 7 11 8 7 6 6 6 6 6 6 5 4 4 4 4 4 3 3 3 3 2 2 3 3 2 2 2 2
12 12 8 7 7 6 5 6 6 5 5 5 5 5 5 5 5 5 5 4 3 3 3 3 3 3 4 3 2 2 2 3
10 9 8 6 6 5 5 5 5 5 4 5 5 5 5 5 5 5 4 3 3 3 4 4 3 2 2 2 2 2 3 3
10 9 7 6 6 5 5 4 4 5 5 5 5 5 5 5 5 4 4 3 3 4 4 4 3 3 2 2 2 3 3 3
11 8 8 9 8 7 7 6 5 6 6 6 5 5 4 4 4 4 4 3 4 4 4 3 3 3 2 2 2 2 3 3
10 9 9 8 6 6 7 7 6 6 7 8 8 7 6 5 4 4 4 4 4 4 4 4 3 3 3 2 2 2 3 3